Погода в Краснохолме

Россия / Оренбургская область     51°35′38″N   54°09′29″E
темп.,
°C
ветер,
м/с
пор.,
м/с
влажн.,
%
обл.,
%
осадки,
мм/ч
давл.,
гПа
погр.,
м
23 мая, пн
пн2323:00+8вюв5890100 1.0 1000446
02:00+8вюв5994100 1.6 997454
05:00+8в3598100 7.2 995218
08:00+13юз91591100 1.9 995943
11:00+11зюз71493100 4.0 997850
14:00+15зюз91374100 1.3 9991541
17:00+14з687696 1.9 1001724
20:00+13сз228099 0.1 1002154
24 мая, вт
вт2423:00+10всв2391100 0.5 100273
02:00+10ссв2394100 0.0 100368
05:00+9св339582 0.0 100359
08:00+12с348698 0.0 1004304
11:00+15с3369100 0.0 1005888
14:00+17с3360100 0.0 10041176
17:00+13сз6884100 1.6 1005388
20:00+11с2594100 6.3 1007310
25 мая, ср
ср2523:00+11с2495100 7.1 1007226
02:00+11ссз3691100 0.0 1007243
05:00+10ссз3691100 0.4 1007191
08:00+10сз3688100 0.8 1008295
11:00+14сз3465100 0.8 10091009
14:00+16зсз4549100 0.0 10091746
17:00+16зсз6556100 0.0 10091312
20:00+13зсз5871100 0.3 1010324
26 мая, чт
чт2623:00+11сз4774100 0.3 1011421
02:00+9сз487592 0.0 1012399
05:00+6зсз35815 0.0 101393
08:00+8зсз45715 0.0 1014410
11:00+12зсз56535 0.0 10151576
14:00+14з6647100 0.0 10152129
17:00+13зюз4647100 0.0 10151766
20:00+11юз376466 0.0 1016313
27 мая, пт
пт2723:00+9ююз486572 0.0 1016150
02:00+7ююз497577 0.0 1015148
05:00+8ю61372100 0.0 1013288
08:00+10ююз81571100 0.0 1013501
11:00+16ююз101461100 0.1 1011993
14:00+17ююз101561100 0.3 10091764
17:00+12ююз61388100 2.7 1008814
20:00+14ююз6108187 0.8 1008715